TimeEST,TemperatureF,Dew PointF,Humidity,Sea Level PressureIn,VisibilityMPH,Wind Direction,Wind SpeedMPH,Gust SpeedMPH,PrecipitationIn,Events,Conditions,WindDirDegrees,DateUTC
12:15 AM,17.6,8.6,68,29.77,10.0,West,16.1,24.2,N/A,,Overcast,260,2013-02-01 05:15:00
12:35 AM,15.8,6.8,68,29.76,10.0,West,11.5,-,N/A,,Mostly Cloudy,260,2013-02-01 05:35:00
12:55 AM,15.8,6.8,68,29.76,10.0,West,10.4,18.4,N/A,,Mostly Cloudy,270,2013-02-01 05:55:00
1:15 AM,15.8,6.8,68,29.76,10.0,West,9.2,-,N/A,,Mostly Cloudy,260,2013-02-01 06:15:00
1:35 AM,15.8,5.0,62,29.76,10.0,WSW,10.4,-,N/A,,Mostly Cloudy,250,2013-02-01 06:35:00
2:15 AM,15.8,6.8,68,29.77,10.0,WSW,9.2,-,N/A,,Partly Cloudy,250,2013-02-01 07:15:00
2:35 AM,15.8,6.8,68,29.78,10.0,WSW,10.4,-,N/A,,Mostly Cloudy,250,2013-02-01 07:35:00
2:55 AM,15.8,6.8,68,29.78,10.0,WSW,10.4,-,N/A,,Overcast,250,2013-02-01 07:55:00
3:15 AM,15.8,6.8,68,29.79,9.0,WSW,9.2,16.1,N/A,,Overcast,250,2013-02-01 08:15:00
3:35 AM,14.0,6.8,73,29.79,9.0,WSW,8.1,-,N/A,,Overcast,250,2013-02-01 08:35:00
3:55 AM,14.0,8.6,79,29.79,5.0,WSW,11.5,-,N/A,,Overcast,250,2013-02-01 08:55:00
4:15 AM,14.0,10.4,86,29.81,2.5,WSW,15.0,23.0,N/A,,Overcast,250,2013-02-01 09:15:00
4:35 AM,14.0,8.6,79,29.82,1.5,WSW,10.4,-,N/A,,Overcast,250,2013-02-01 09:35:00
4:55 AM,14.0,8.6,79,29.83,3.0,WSW,12.7,21.9,N/A,,Overcast,240,2013-02-01 09:55:00
5:15 AM,14.0,8.6,79,29.84,1.5,WSW,11.5,20.7,N/A,,Overcast,240,2013-02-01 10:15:00
5:35 AM,14.0,8.6,79,29.85,4.0,WSW,12.7,18.4,N/A,,Overcast,250,2013-02-01 10:35:00
5:55 AM,14.0,8.6,79,29.87,3.0,WSW,10.4,-,N/A,,Overcast,250,2013-02-01 10:55:00
6:15 AM,14.0,8.6,79,29.88,1.2,WSW,11.5,-,N/A,,Overcast,250,2013-02-01 11:15:00
6:35 AM,14.0,8.6,79,29.90,1.2,WSW,9.2,17.3,N/A,,Overcast,250,2013-02-01 11:35:00
7:15 AM,12.2,8.6,85,29.92,2.5,WSW,10.4,-,N/A,,Overcast,240,2013-02-01 12:15:00
7:35 AM,12.2,8.6,85,29.94,1.5,WSW,9.2,-,N/A,,Overcast,240,2013-02-01 12:35:00
7:55 AM,12.2,8.6,85,29.95,2.0,WSW,13.8,21.9,N/A,,Overcast,250,2013-02-01 12:55:00
8:15 AM,12.2,6.8,79,29.96,2.5,WSW,11.5,20.7,N/A,,Overcast,240,2013-02-01 13:15:00
8:35 AM,12.2,8.6,85,29.98,1.8,WSW,9.2,16.1,N/A,,Overcast,250,2013-02-01 13:35:00
8:55 AM,12.2,8.6,85,29.99,1.0,WSW,12.7,19.6,N/A,,Overcast,240,2013-02-01 13:55:00
9:15 AM,12.2,8.6,85,29.99,1.0,WSW,12.7,20.7,N/A,,Overcast,250,2013-02-01 14:15:00
9:35 AM,12.2,6.8,79,30.00,1.5,WSW,17.3,25.3,N/A,,Overcast,250,2013-02-01 14:35:00
9:55 AM,12.2,6.8,79,30.02,1.0,West,16.1,23.0,N/A,,Overcast,260,2013-02-01 14:55:00
10:15 AM,12.2,6.8,79,30.03,1.0,West,17.3,29.9,N/A,,Overcast,260,2013-02-01 15:15:00
10:35 AM,12.2,6.8,79,30.05,0.8,West,18.4,28.8,N/A,,Overcast,260,2013-02-01 15:35:00
10:55 AM,12.2,6.8,79,30.06,1.0,WSW,16.1,23.0,N/A,,Overcast,250,2013-02-01 15:55:00
11:15 AM,12.2,6.8,79,30.06,1.2,West,17.3,25.3,N/A,,Overcast,260,2013-02-01 16:15:00
11:35 AM,14.0,6.8,73,30.06,2.0,West,18.4,-,N/A,,Overcast,260,2013-02-01 16:35:00
11:55 AM,15.8,6.8,68,30.07,3.0,WSW,15.0,24.2,N/A,,Overcast,250,2013-02-01 16:55:00
12:15 PM,15.8,6.8,68,30.08,2.5,West,18.4,25.3,N/A,,Mostly Cloudy,270,2013-02-01 17:15:00
12:35 PM,15.8,8.6,73,30.08,2.5,WSW,17.3,21.9,N/A,,Overcast,250,2013-02-01 17:35:00
12:55 PM,15.8,6.8,68,30.08,3.0,West,20.7,26.5,N/A,,Overcast,260,2013-02-01 17:55:00
1:15 PM,15.8,8.6,73,30.09,2.0,West,18.4,28.8,N/A,,Overcast,260,2013-02-01 18:15:00
1:35 PM,15.8,8.6,73,30.09,1.2,West,17.3,27.6,N/A,,Overcast,270,2013-02-01 18:35:00
1:55 PM,15.8,6.8,68,30.09,5.0,West,16.1,25.3,N/A,,Overcast,280,2013-02-01 18:55:00
2:15 PM,15.8,5.0,62,30.10,4.0,West,12.7,31.1,N/A,,Overcast,260,2013-02-01 19:15:00
2:35 PM,15.8,5.0,62,30.11,10.0,West,13.8,25.3,N/A,,Mostly Cloudy,270,2013-02-01 19:35:00
2:55 PM,15.8,3.2,58,30.11,9.0,WSW,19.6,27.6,N/A,,Overcast,250,2013-02-01 19:55:00
3:15 PM,15.8,3.2,58,30.12,6.0,West,18.4,27.6,N/A,,Overcast,260,2013-02-01 20:15:00
3:35 PM,15.8,3.2,58,30.13,7.0,West,18.4,27.6,N/A,,Overcast,260,2013-02-01 20:35:00
3:55 PM,15.8,3.2,58,30.13,9.0,West,20.7,28.8,N/A,,Overcast,260,2013-02-01 20:55:00
4:15 PM,15.8,1.4,53,30.15,5.0,West,18.4,26.5,N/A,,Overcast,260,2013-02-01 21:15:00
4:35 PM,14.0,1.4,57,30.15,8.0,WSW,18.4,28.8,N/A,,Mostly Cloudy,250,2013-02-01 21:35:00
4:55 PM,14.0,1.4,57,30.16,10.0,WSW,18.4,25.3,N/A,,Scattered Clouds,250,2013-02-01 21:55:00
5:15 PM,14.0,1.4,57,30.16,10.0,WSW,16.1,24.2,N/A,,Partly Cloudy,240,2013-02-01 22:15:00
5:35 PM,12.2,1.4,62,30.16,10.0,WSW,12.7,16.1,N/A,,Scattered Clouds,240,2013-02-01 22:35:00
5:55 PM,12.2,1.4,62,30.17,10.0,WSW,9.2,-,N/A,,Partly Cloudy,250,2013-02-01 22:55:00
6:15 PM,12.2,1.4,62,30.17,10.0,WSW,10.4,-,N/A,,Clear,240,2013-02-01 23:15:00
6:35 PM,12.2,1.4,62,30.18,10.0,WSW,9.2,-,N/A,,Clear,250,2013-02-01 23:35:00
6:55 PM,12.2,1.4,62,30.19,10.0,WSW,12.7,16.1,N/A,,Clear,250,2013-02-01 23:55:00
7:15 PM,10.4,1.4,67,30.19,10.0,WSW,10.4,-,N/A,,Clear,240,2013-02-02 00:15:00
7:35 PM,10.4,1.4,67,30.19,10.0,SW,9.2,-,N/A,,Clear,230,2013-02-02 00:35:00
7:55 PM,10.4,3.2,73,30.20,10.0,WSW,10.4,-,N/A,,Partly Cloudy,240,2013-02-02 00:55:00
8:15 PM,10.4,3.2,73,30.21,10.0,WSW,9.2,16.1,N/A,,Clear,240,2013-02-02 01:15:00
8:35 PM,10.4,3.2,73,30.21,10.0,SW,6.9,-,N/A,,Clear,230,2013-02-02 01:35:00
8:55 PM,10.4,1.4,67,30.21,10.0,SW,10.4,-,N/A,,Clear,230,2013-02-02 01:55:00
9:15 PM,10.4,1.4,67,30.21,10.0,SW,11.5,-,N/A,,Clear,230,2013-02-02 02:15:00
9:35 PM,10.4,1.4,67,30.21,10.0,WSW,9.2,-,N/A,,Clear,240,2013-02-02 02:35:00
9:55 PM,8.6,3.2,79,30.21,10.0,SW,5.8,-,N/A,,Mostly Cloudy,230,2013-02-02 02:55:00
10:15 PM,10.4,3.2,73,30.22,10.0,SSW,5.8,-,N/A,,Overcast,210,2013-02-02 03:15:00
10:35 PM,10.4,3.2,73,30.21,10.0,SW,5.8,-,N/A,,Overcast,220,2013-02-02 03:35:00
10:55 PM,10.4,5.0,79,30.21,10.0,SW,10.4,-,N/A,,Overcast,220,2013-02-02 03:55:00
11:15 PM,10.4,3.2,73,30.22,10.0,SW,10.4,19.6,N/A,,Overcast,230,2013-02-02 04:15:00
11:35 PM,10.4,3.2,73,30.22,10.0,WSW,12.7,18.4,N/A,,Overcast,240,2013-02-02 04:35:00
11:55 PM,10.4,1.4,67,30.21,10.0,WSW,11.5,19.6,N/A,,Overcast,240,2013-02-02 04:55:00